Location: Ch�risy
(50.2331°N, 2.9131°E)
Time: 19:53:11
(UTC+00:00)

Cosmos 2082 Rocket - Pass Details

Date: 17 January 2021
Orbit: 832 x 855 km, 71.0° (Epoch: 27 February)

Event Time Altitude Azimuth Distance (km) Brightness Sun altitude
Rises 18:31:07 0° 332° (NNW) 3,437 5.6 -20.8°
Reaches altitude 10° 18:34:30 10° 352° (N) 2,498 4.7 -21.3°
Enters shadow 18:37:17 17° 20° (NNE) 2,059 4.0 -21.8°
